Flag for Germany Weather past 2 weeks in Rostock, Mecklenburg-Western Pomerania, Germany

Now
74 °F

Overcast.


Feels Like: 76 °F
Forecast: 59 / 70 °F
Wind: 5 mph from Northeast

Location: Rostock-Warnemuende

Current Time: Jul 5, 2015 at 5:30:15 PM

Latest Report: Jul 5, 2015 at 5:00 PM


Visibility: 6 mi

Pressure: 29.98 "Hg

Humidity: 74%

Dew point: 65 °F

Location of RostockLocation

Historic Weather in Rostock — Graph

°F

Rostock temperature yesterday

Maximum temperature yesterday: 93 °F (at 4:00 PM)
Minimum temperature yesterday: 65 °F (at 5:00 AM)
Average temperature yesterday: 74 °F

Past Weeks' High & Low Weather Summary

 TemperatureHumidityPressure
High93 °F (Jul 4, 4:00 PM)97% (Jun 29, 4:00 AM)30.30 "Hg (Jun 29, 4:00 AM)
Low53 °F (Jun 23, 2:00 AM)33% (Jul 3, 3:00 PM)29.61 "Hg (Jun 23, 3:00 AM)
Average64 °F74%30.06 "Hg
* Reported Jun 20 4:00 PM — Jul 5 4:00 PM, Rostock, Weather by CustomWeather, © 2015

Note: Actual official high and low records may vary slightly from our data, if they occured in-between our weather recording intervals... More about our weather records

Advertising

Rostock weather history for previous 24 hours

 ConditionsComfort  
Time TempWeatherWind HumidityBarometerVisibility
4:00 PM
Sun, Jul 5
75 °FPartly sunny.2 mph72%30.00 "Hg6 mi
3:00 PM75 °FPartly sunny.2 mph72%30.01 "Hg6 mi
2:00 PM74 °FPartly sunny.3 mph77%30.03 "Hg8 mi
1:00 PM77 °FScattered clouds.2 mph69%30.02 "Hg7 mi
12:00 PM81 °FScattered clouds.2 mph59%30.03 "Hg11 mi
11:00 AM84 °FScattered clouds.2 mph50%30.03 "Hg12 mi
10:00 AM82 °FPassing clouds.2 mph53%30.05 "Hg11 mi
9:00 AM77 °FScattered clouds.2 mph65%30.06 "Hg12 mi
8:00 AM74 °FScattered clouds.2 mph72%30.07 "Hg12 mi
7:00 AM72 °FPartly sunny.3 mph74%30.07 "Hg12 mi
5:00 AM69 °FPartly sunny.2 mph84%30.05 "Hg16 mi
4:00 AM70 °FOvercast.2 mph76%30.04 "Hg19 mi
3:00 AM71 °FThunderstorms. Overcast.3 mph77%30.04 "Hg19 mi
2:00 AM76 °FThunderstorms. Overcast.2 mph62%30.04 "Hg22 mi
1:00 AM77 °FThunderstorms. Overcast.5 mph58%30.06 "Hg19 mi
12:00 AM75 °FOvercast.8 mph71%30.09 "Hg11 mi
11:00 PM
Sat, Jul 4
71 °FOvercast.1 mph88%30.03 "Hg7 mi
10:00 PM71 °FOvercast.2 mph88%30.04 "Hg9 mi
9:00 PM72 °FPartly sunny.1 mph84%30.03 "Hg11 mi
8:00 PM74 °FPartly sunny.2 mph77%30.03 "Hg12 mi
7:00 PM76 °FPartly sunny.1 mph69%30.03 "Hg12 mi
6:00 PM78 °FScattered clouds.2 mph64%30.05 "Hg12 mi
5:00 PM90 °FScattered clouds.3 mph40%30.06 "Hg12 mi
Weather by CustomWeather, © 2015

See weather overviewHow to use our weather pages